Location: Lake of the Woods (North-East)
(49.6672°N, 94.8656°W)
Time: 02:47:14
(UTC-05:00)

ISS - All Passes

Search period start: 28 May 2015 00:00
Search period end: 07 June 2015 00:00
Orbit: 399 x 404 km, 51.6° (Epoch: 28 May)

Date Brightness Start Highest point End Pass type
(mag) Time Alt. Az. Time Alt. Az. Time Alt. Az.
28 May - 00:29:43 10° SW 00:32:43 35° SSE 00:35:44 10° E visible
28 May - 02:05:44 10° W 02:09:00 72° NNW 02:12:16 10° ENE visible
28 May - 03:42:21 10° WNW 03:45:37 63° N 03:48:52 10° E visible
28 May - 05:18:50 10° WNW 05:22:01 51° SSW 05:25:12 10° SE daylight
28 May - 06:56:50 10° WSW 06:57:53 11° SW 06:58:50 10° SSW daylight
28 May - 23:37:03 10° SSW 23:39:37 22° SE 23:42:15 10° E visible
29 May - 01:12:29 10° WSW 01:15:44 87° SSE 01:19:01 10° ENE visible
29 May - 02:49:04 10° W 02:52:18 58° N 02:55:32 10° E visible
29 May - 04:25:33 10° WNW 04:28:49 76° SSW 04:32:06 10° ESE visible
29 May - 06:02:30 10° W 06:04:52 18° SW 06:07:12 10° S daylight
29 May - 22:44:55 10° S 22:46:35 14° SE 22:48:20 10° ESE visible
30 May - 00:19:18 10° SW 00:22:31 61° SSE 00:25:45 10° ENE visible
30 May - 01:55:45 10° W 01:58:58 60° N 02:02:13 10° ENE visible
30 May - 03:32:18 10° WNW 03:35:35 80° NNE 03:38:51 10° ESE visible
30 May - 05:08:54 10° W 05:11:48 29° SSW 05:14:40 10° SSE daylight
30 May - 23:26:17 10° SW 23:29:20 39° SSE 23:32:24 10° E visible
31 May - 01:02:25 10° W 01:05:40 69° N 01:08:55 10° ENE visible
31 May - 02:39:01 10° WNW 02:42:16 65° N 02:45:31 10° E visible
31 May - 04:15:30 10° WNW 04:18:39 46° SSW 04:21:47 10° SE visible
31 May - 22:33:30 10° SSW 22:36:12 25° SE 22:38:56 10° E visible
01 Jun - 00:09:06 10° WSW 00:12:22 87° N 00:15:38 10° ENE visible
01 Jun - 01:45:42 10° WNW 01:48:56 59° N 01:52:10 10° E visible
01 Jun - 03:22:11 10° WNW 03:25:26 70° SSW 03:28:41 10° ESE visible
01 Jun - 04:59:16 10° W 05:01:26 16° SW 05:03:32 10° S daylight
01 Jun - 21:41:09 10° S 21:43:07 15° SE 21:45:09 10° E daylight
01 Jun - 23:15:52 10° WSW 23:19:05 67° SSE 23:22:20 10° ENE visible
02 Jun - 00:52:21 10° W 00:55:35 59° N 00:58:49 10° ENE visible
02 Jun - 02:28:53 10° WNW 02:32:09 85° NNE 02:35:26 10° ESE visible
02 Jun - 04:05:33 10° W 04:08:20 26° SW 04:11:07 10° SSE visible
02 Jun - 22:22:45 10° SW 22:25:52 43° SSE 22:28:59 10° ENE visible
02 Jun - 23:58:59 10° W 00:02:13 66° N 00:05:29 10° ENE visible
03 Jun - 01:35:34 10° WNW 01:38:50 68° N 01:42:05 10° E visible
03 Jun - 03:12:04 10° W 03:15:11 41° SSW 03:18:16 10° SE visible
03 Jun - 21:29:53 10° SSW 21:32:41 27° SE 21:35:32 10° E daylight
03 Jun - 23:05:38 10° WSW 23:08:53 82° NNW 23:12:10 10° ENE visible
04 Jun - 00:42:14 10° WNW 00:45:28 59° N 00:48:42 10° E visible
04 Jun - 02:18:42 10° WNW 02:21:56 63° SSW 02:25:10 10° ESE visible
04 Jun - 03:55:59 10° WSW 03:57:54 14° SW 03:59:44 10° S visible
04 Jun - 20:37:22 10° S 20:39:33 17° SE 20:41:49 10° E daylight
04 Jun - 22:12:20 10° WSW 22:15:35 73° SSE 22:18:50 10° ENE visible
04 Jun - 23:48:52 10° W 23:52:05 58° N 23:55:19 10° E visible
05 Jun - 01:25:23 10° WNW 01:28:39 90° SW 01:31:55 10° ESE visible
05 Jun - 03:02:06 10° W 03:04:47 23° SW 03:07:26 10° SSE visible
05 Jun - 19:46:04 10° SE 19:46:28 10° SE 19:46:59 10° SE daylight
05 Jun - 21:19:10 10° SW 21:22:18 48° SSE 21:25:28 10° ENE daylight
05 Jun - 22:55:28 10° W 22:58:42 64° N 23:01:57 10° ENE visible
06 Jun - 00:32:02 10° WNW 00:35:18 71° NNE 00:38:33 10° E visible
06 Jun - 02:08:33 10° W 02:11:36 37° SSW 02:14:38 10° SE visible
06 Jun - 20:26:11 10° SSW 20:29:05 31° SSE 20:32:01 10° E daylight
06 Jun - 22:02:04 10° WSW 22:05:19 77° NNW 22:08:35 10° ENE visible
06 Jun - 23:38:40 10° WNW 23:41:54 61° N 23:45:09 10° E visible
